This is the latest recevied weather packets stored in our database for station/object AC1IX. If no packets are shown the sender has not sent any weather packets the latest 10 day(s).
| Time | Temp. | Humidity | Pressure | Rain* | Wind** | Luminosity | Snow |
|---|---|---|---|---|---|---|---|
| 1777812119 | 5.56° C | 80% | 1011.2 hPa | 0 mm | - | 198 W/m² | - |
| 1777811818 | 5° C | 80% | 1011.2 hPa | 0 mm | - | 194 W/m² | - |
| 1777811515 | 4.44° C | 80% | 1011.1 hPa | 0 mm | - | 162 W/m² | - |
| 1777811210 | 4.44° C | 82% | 1010.9 hPa | 0 mm | - | 172 W/m² | - |
| 1777810908 | 3.89° C | 82% | 1011.1 hPa | 0 mm | - | 175 W/m² | - |
| 1777810604 | 3.89° C | 83% | 1011.1 hPa | 0 mm | - | 159 W/m² | - |
| 1777810302 | 3.89° C | 84% | 1010.7 hPa | 0 mm | - | 150 W/m² | - |
| 1777809997 | 3.89° C | 84% | 1011.1 hPa | 0 mm | - | 151 W/m² | - |
| 1777809695 | 3.33° C | 84% | 1011.1 hPa | 0 mm | - | 149 W/m² | - |
| 1777809392 | 3.33° C | 87% | 1011.2 hPa | 0 mm | - | 143 W/m² | - |
| 1777809090 | 2.78° C | 86% | 1011 hPa | 0 mm | - | 131 W/m² | - |
| 1777808788 | 2.78° C | 86% | 1010.9 hPa | 0 mm | - | 123 W/m² | - |
| 1777808484 | 2.22° C | 87% | 1011 hPa | 0 mm | - | 101 W/m² | - |
| 1777808182 | 2.22° C | 88% | 1011.2 hPa | 0 mm | - | 76 W/m² | - |
| 1777807880 | 2.22° C | 89% | 1011 hPa | 0 mm | - | 49 W/m² | - |
| 1777807578 | 2.22° C | 89% | 1011.1 hPa | 0 mm | - | 36 W/m² | - |
| 1777807275 | 1.67° C | 89% | 1011.2 hPa | 0 mm | - | 34 W/m² | - |
| 1777806971 | 2.22° C | 91% | 1011 hPa | 0 mm | - | 47 W/m² | - |
| 1777806667 | 1.67° C | 92% | 1010.6 hPa | 0 mm | - | 54 W/m² | - |
| 1777806363 | 1.67° C | 94% | 1011 hPa | 0 mm | - | 47 W/m² | - |
| 1777806061 | 1.67° C | 95% | 1010.9 hPa | 0 mm | - | 46 W/m² | - |
| 1777805756 | 1.11° C | 95% | 1010.9 hPa | 0 mm | - | 32 W/m² | - |
| 1777805454 | 1.11° C | 96% | 1010.9 hPa | 0 mm | - | 24 W/m² | - |
| 1777805152 | 1.11° C | 96% | 1010.5 hPa | 0 mm | - | 20 W/m² | - |
| 1777804849 | 1.11° C | 97% | 1010.7 hPa | 0 mm | - | 15 W/m² | - |
* Rain latest hour (hover to see other rain measurements)
** Current wind speed in m/s (hover to see current wind gust speed)